Regional Weather Roundup
Issued by NWS

Home | Current Version | Previous Version | Text Only | Print | Product List | Glossary On
Versions: 1 2 3 4 5 6 7 8 9 10 11 12 13 14 15 16 17 18 19 20 21 22 23 24 25 26 27 28 29 30 31 32 33 34 35 36 37 38 39 40 41 42 43 44 45 46 47 48 49 50
000
ASUS43 KMKX 012000
RWRWI

WISCONSIN REGIONAL WEATHER ROUNDUP
NATIONAL WEATHER SERVICE MILWAUKEE/SULLIVAN WI
300 PM CDT WED OCT 01 2014

NOTE: "FAIR" INDICATES FEW OR NO CLOUDS BELOW 12,000 FEET WITH NO
SIGNIFICANT WEATHER AND/OR OBSTRUCTIONS TO VISIBILITY.

WIZ001-002-006>008-014>016-023>028-012100-
NORTHWEST WISCONSIN

CITY           SKY/WX    TMP DP  RH WIND       PRES   REMARKS
SUPERIOR ARPT  LGT RAIN  50  50  98 E3        29.81F
ASHLAND        RAIN      51  50  96 CALM      29.82S FOG
HAYWARD        RAIN      50  49  96 SW6       29.83R FOG
SIREN          LGT RAIN  50  49  97 S5        29.81S
CUMBERLAND     LGT RAIN  48  46  93 S5        29.82F
RICE LAKE      HVY RAIN  50  48  94 SE6       29.84S
CHETEK         RAIN      50  50  99 SE6       29.83S
LADYSMITH      CLOUDY    52  51  95 SE8       29.84F FOG
EAU CLAIRE     NOT AVBL
MENOMONIE      DRIZZLE   52  51  98 SE6       29.83S
NEW RICHMOND   LGT RAIN  50  50  99 CALM      29.81F
OSCEOLA        RAIN      51  51 100 SE8       29.83F
$$

WIZ003>005-009-010-017-018-012100-
NORTH CENTRAL WISCONSIN

CITY           SKY/WX    TMP DP  RH WIND       PRES   REMARKS
MANITOWISH WTR CLOUDY    55  47  76 S10       29.86F
ARBOR VITAE    CLOUDY    57  48  72 SE9G17    29.87S
WOODRUFF       CLOUDY    57  48  72 SE9G17    29.87S
RHINELANDER    CLOUDY    56  48  74 SE10      29.89F
EAGLE RIVER    CLOUDY    56  45  66 S7G17     29.88F
LAND O LAKES   PTSUNNY   57  46  68 SE9       29.88F
PHILLIPS       DRIZZLE   51  49  93 SE5       29.84F
TOMAHAWK       CLOUDY    55  48  79 CALM      29.88F
MEDFORD        CLOUDY    53  50  89 E8        29.84F
MERRILL        CLOUDY    58  50  75 SE10      29.88F
$$

WIZ029-030-035-036-043>047-012100-
CENTRAL WISCONSIN

CITY           SKY/WX    TMP DP  RH WIND       PRES   REMARKS
WAUSAU         LGT RAIN  60  51  72 SE7       29.87F
MOSINEE        NOT AVBL
MARSHFIELD     CLOUDY    58  51  78 SE8       29.86F
STEVENS POINT  DRIZZLE   60  49  68 SE12      29.89F
WAUPACA        PTSUNNY   67  52  57 SE12      29.90F
WAUTOMA        NOT AVBL
WISC RAPIDS    CLOUDY    60  52  74 SE7       29.88F
CAMP DOUGLAS   NOT AVBL
$$

WIZ011>013-019>022-031-037>040-048>050-012100-
NORTHEAST WISCONSIN

CITY           SKY/WX    TMP DP  RH WIND       PRES   REMARKS
ANTIGO         CLOUDY    57  51  79 SE13      29.91F
SHAWANO        CLOUDY    64  51  63 SE9       29.92F
OCONTO         CLOUDY    57  54  88 SE13      29.95F
STURGEON BAY   NOT AVBL
GREEN BAY      PTSUNNY   62  53  72 SE14      29.93F
MANITOWOC      NOT AVBL
APPLETON       PTSUNNY   63  52  67 SE14      29.92F
CLINTONVILLE   PTSUNNY   63  50  63 SE13      29.91F
OSHKOSH        PTSUNNY   64  52  64 SE13G21   29.90F
$$

WIZ032>034-041-042-053>061-012100-
SOUTHWEST WISCONSIN

CITY           SKY/WX    TMP DP  RH WIND       PRES   REMARKS
LA CROSSE      CLOUDY    62  54  74 CALM      29.83F
SPARTA         CLOUDY    61  51  71 CALM      29.85F
VIROQUA        CLOUDY    61  52  71 SE7       29.84F
BOSCOBEL       PTSUNNY   70  54  56 SE3       29.83F
PRAIRIE DU CHI CLOUDY    66  51  58 SE6       29.83F
PLATTEVILLE    CLOUDY    69  55  61 SE9       29.86R
$$

WIZ056-057-062-063-064-067-068-012100-
SOUTH CENTRAL WISCONSIN

CITY           SKY/WX    TMP DP  RH WIND       PRES   REMARKS
REEDSBURG      CLOUDY    65  54  67 SE8       29.85F
BARABOO/DELLS  CLOUDY    66  51  58 SE5       29.87F
LONE ROCK      NOT AVBL
MINERAL POINT  CLOUDY    68  54  60 SE8G16    29.85F
MADISON        CLOUDY    69  52  54 SE14      29.86F
MIDDLETON      CLOUDY    69  51  52 SE15      29.86F
WATERTOWN      PTSUNNY   67  52  58 SE13      29.88F
MONROE         CLOUDY    68  54  60 SE8G17    29.86F
JANESVILLE     NOT AVBL
$$

WIZ051-052-058>065-066-070>072-012100-
SOUTHEAST WISCONSIN

CITY           SKY/WX    TMP DP  RH WIND       PRES   REMARKS
MILWAUKEE      PTSUNNY   60  51  72 SE20      29.94F
WAUKESHA       SUNNY     63  50  63 SE15      29.93F
MILWAUKEE/TIMM SUNNY     63  48  59 SE14      29.95F
RACINE         MOSUNNY   61  51  70 SE17G25   29.96F
BURLINGTON     PTSUNNY   65  51  61 SE12      29.91F
KENOSHA        MOSUNNY   62  52  69 SE13G23   29.94F
FOND DU LAC    PTSUNNY   64  51  62 SE16      29.90F
SHEBOYGAN      CLOUDY    58  52  80 SE14G22   29.95F
WEST BEND      MOSUNNY   61  48  63 SE10G17   29.94F
JUNEAU         PTSUNNY   65  51  60 SE13      29.91S
$$

LSZ147-162-012100-
LAKE SUPERIOR

STATION/POSITION TIME  TEMP    WIND        PRES    WAVE
                       AIR SEA DIR/SP/G            HT/PER
                 (UTC) (F)     (DEG/KT/KT) (MB)    (FT/S)
W MID LAKE BUOY  1850   50 50   50/  4/  4 1011.4F   1/ 3
DEVILS ISLAND    1900   49      90/  9/ 10 1010.9F
SAXON HARBOR     1900   52        CALM     1010.2F
$$

LMZ867-665-643>646-012100-
LAKE MICHIGAN

STATION/POSITION TIME  TEMP    WIND        PRES    WAVE
                       AIR SEA DIR/SP/G            HT/PER
                 (UTC) (F)     (DEG/KT/KT) (MB)    (FT/S)
CHAMBERS ISLAND  1900   59     140/  4/ 12 1015.2F
N MID LAKE BUOY  1850   55 58  180/ 10/ 12 1016.2F   1/ 3
NORTHPORT PIER   1900   55     150/ 12/ 15 1015.2F
SISTER BAY       1757          170/ 14/ 21   N/A
KEWAUNEE LAKESHO 1900   55     150/ 15/ 18 1014.4F
SHEBOYGAN LAKESH 1900   56 55  140/ 18/ 21 1015.4F
PORT WASHINGTON  1940   59     150/ 12/ 15 1014.6F
ATWATER BUOY     1900   58     150/ 16/ 19 1015.7F
MILWAUKEE LAKESH 1900   58     150/ 16/ 18   N/A
S MID LAKE BUOY  1850   57 61  150/ 12/ 14 1016.0F   1/ 3
KENOSHA   LAKESH 1900   60     140/ 16/ 18 1014.6F
$$

TC  - TEMPERATURE IN CELSIUS
VSB - VISIBILITY IN STATUTE MILES
WCI - WIND CHILL INDEX
HX  - HEAT INDEX




USA.gov is the U.S. government's official web portal to all federal, state and local government web resources and services.